Time,TemperatureF,DewpointF,PressureIn,WindDirection,WindDirectionDegrees,WindSpeedMPH,WindSpeedGustMPH,Humidity,HourlyPrecipIn,Conditions,Clouds,dailyrainin,SoftwareType,DateUTC
2013-01-24 00:04:00,41.7,36.3,30.20,WSW,241,17.0,26.0,81,0.00,,,0.00,Wunderground v.1.15,2013-01-24 06:04:00,
2013-01-24 00:10:00,41.6,36.2,30.19,WSW,257,25.0,25.0,81,0.00,,,0.00,Wunderground v.1.15,2013-01-24 06:10:00,
2013-01-24 00:16:00,41.6,36.5,30.19,West,261,18.0,25.0,82,0.00,,,0.00,Wunderground v.1.15,2013-01-24 06:16:00,
2013-01-24 00:22:00,41.6,36.5,30.19,NW,304,19.0,22.0,82,0.00,,,0.00,Wunderground v.1.15,2013-01-24 06:22:00,
2013-01-24 00:27:00,41.6,36.5,30.19,WNW,284,20.0,22.0,82,0.00,,,0.00,Wunderground v.1.15,2013-01-24 06:27:00,
2013-01-24 00:33:00,41.7,36.6,30.19,West,279,22.0,22.0,82,0.00,,,0.00,Wunderground v.1.15,2013-01-24 06:33:00,
2013-01-24 00:39:00,41.8,36.7,30.19,West,271,22.0,23.0,82,0.00,,,0.00,Wunderground v.1.15,2013-01-24 06:39:00,
2013-01-24 00:44:00,41.7,36.6,30.19,WSW,252,23.0,23.0,82,0.00,,,0.00,Wunderground v.1.15,2013-01-24 06:44:00,
2013-01-24 00:50:00,41.6,36.5,30.19,West,277,18.0,18.0,82,0.00,,,0.00,Wunderground v.1.15,2013-01-24 06:50:00,
2013-01-24 00:55:00,41.5,36.7,30.19,WNW,296,17.0,18.0,83,0.00,,,0.00,Wunderground v.1.15,2013-01-24 06:55:00,
2013-01-24 01:01:00,41.5,36.7,30.19,WNW,292,13.0,15.0,83,0.00,,,0.00,Wunderground v.1.15,2013-01-24 07:01:00,
2013-01-24 01:06:00,41.4,36.6,30.19,South,183,6.0,20.0,83,0.00,,,0.00,Wunderground v.1.15,2013-01-24 07:06:00,
2013-01-24 01:12:00,41.3,36.5,30.19,NW,304,8.0,15.0,83,0.00,,,0.00,Wunderground v.1.15,2013-01-24 07:12:00,
2013-01-24 01:17:00,41.2,36.4,30.19,WNW,296,16.0,16.0,83,0.00,,,0.00,Wunderground v.1.15,2013-01-24 07:17:00,
2013-01-24 01:23:00,41.4,36.3,30.19,SE,127,5.0,23.0,82,0.00,,,0.00,Wunderground v.1.15,2013-01-24 07:23:00,
2013-01-24 01:29:00,41.4,36.3,30.19,WNW,287,17.0,23.0,82,0.00,,,0.00,Wunderground v.1.15,2013-01-24 07:29:00,
2013-01-24 01:34:00,41.5,36.1,30.20,WNW,291,7.0,20.0,81,0.00,,,0.00,Wunderground v.1.15,2013-01-24 07:34:00,
2013-01-24 01:40:00,41.3,35.9,30.20,West,275,21.0,21.0,81,0.00,,,0.00,Wunderground v.1.15,2013-01-24 07:40:00,
2013-01-24 01:45:00,41.2,35.8,30.20,West,276,15.0,21.0,81,0.00,,,0.00,Wunderground v.1.15,2013-01-24 07:45:00,
2013-01-24 01:51:00,41.0,35.9,30.20,WNW,286,18.0,18.0,82,0.00,,,0.00,Wunderground v.1.15,2013-01-24 07:51:00,
2013-01-24 01:56:00,41.0,35.6,30.20,WSW,245,5.0,21.0,81,0.00,,,0.00,Wunderground v.1.15,2013-01-24 07:56:00,
2013-01-24 02:01:00,40.9,35.5,30.20,WNW,300,8.0,14.0,81,0.00,,,0.00,Wunderground v.1.15,2013-01-24 08:01:00,
2013-01-24 02:06:00,40.7,35.3,30.20,ENE,66,8.0,24.0,81,0.00,,,0.00,Wunderground v.1.15,2013-01-24 08:06:00,
2013-01-24 02:11:00,40.6,35.2,30.20,WNW,293,18.0,19.0,81,0.00,,,0.00,Wunderground v.1.15,2013-01-24 08:11:00,
2013-01-24 02:16:00,40.5,35.4,30.20,West,274,20.0,20.0,82,0.00,,,0.00,Wunderground v.1.15,2013-01-24 08:16:00,
2013-01-24 02:21:00,40.4,35.0,30.20,NW,315,15.0,21.0,81,0.00,,,0.00,Wunderground v.1.15,2013-01-24 08:21:00,
2013-01-24 02:26:00,40.3,34.9,30.20,West,260,18.0,25.0,81,0.00,,,0.00,Wunderground v.1.15,2013-01-24 08:26:00,
2013-01-24 02:31:00,40.1,34.7,30.20,NW,313,12.0,21.0,81,0.00,,,0.00,Wunderground v.1.15,2013-01-24 08:31:00,
2013-01-24 02:36:00,39.9,34.9,30.20,WNW,296,14.0,27.0,82,0.00,,,0.00,Wunderground v.1.15,2013-01-24 08:36:00,
2013-01-24 02:41:00,39.6,34.6,30.20,NW,317,10.0,22.0,82,0.00,,,0.00,Wunderground v.1.15,2013-01-24 08:41:00,
2013-01-24 02:46:00,39.5,34.5,30.20,WNW,298,21.0,22.0,82,0.00,,,0.00,Wunderground v.1.15,2013-01-24 08:46:00,
2013-01-24 02:51:00,39.3,34.6,30.20,WNW,290,18.0,22.0,83,0.00,,,0.00,Wunderground v.1.15,2013-01-24 08:51:00,
2013-01-24 02:56:00,39.1,34.4,30.20,NNW,331,14.0,24.0,83,0.00,,,0.00,Wunderground v.1.15,2013-01-24 08:56:00,
2013-01-24 03:01:00,38.9,33.9,30.20,WNW,287,19.0,29.0,82,0.00,,,0.00,Wunderground v.1.15,2013-01-24 09:01:00,
2013-01-24 03:06:00,38.7,33.7,30.20,WSW,253,10.0,29.0,82,0.00,,,0.00,Wunderground v.1.15,2013-01-24 09:06:00,
2013-01-24 03:11:00,38.5,33.8,30.20,WNW,301,16.0,17.0,83,0.00,,,0.00,Wunderground v.1.15,2013-01-24 09:11:00,
2013-01-24 03:16:00,38.3,33.6,30.20,NNW,346,4.0,28.0,83,0.00,,,0.00,Wunderground v.1.15,2013-01-24 09:16:00,
2013-01-24 03:21:00,38.0,33.3,30.20,South,173,7.0,20.0,83,0.00,,,0.00,Wunderground v.1.15,2013-01-24 09:21:00,
2013-01-24 03:26:00,37.8,32.8,30.19,NW,304,6.0,28.0,82,0.00,,,0.00,Wunderground v.1.15,2013-01-24 09:26:00,
2013-01-24 03:31:00,37.5,32.5,30.19,West,264,6.0,28.0,82,0.00,,,0.00,Wunderground v.1.15,2013-01-24 09:31:00,
2013-01-24 03:36:00,37.2,32.5,30.19,SE,146,13.0,28.0,83,0.00,,,0.00,Wunderground v.1.15,2013-01-24 09:36:00,
2013-01-24 03:41:00,36.9,32.2,30.20,SW,225,16.0,24.0,83,0.00,,,0.00,Wunderground v.1.15,2013-01-24 09:41:00,
2013-01-24 03:46:00,36.4,31.7,30.19,WNW,289,12.0,28.0,83,0.00,,,0.00,Wunderground v.1.15,2013-01-24 09:46:00,
2013-01-24 03:51:00,36.1,31.4,30.19,WNW,288,20.0,21.0,83,0.00,,,0.00,Wunderground v.1.15,2013-01-24 09:51:00,
2013-01-24 03:56:00,35.8,31.4,30.20,NW,307,12.0,21.0,84,0.00,,,0.00,Wunderground v.1.15,2013-01-24 09:56:00,
2013-01-24 04:01:00,35.6,31.2,30.20,NNE,20,6.0,21.0,84,0.00,,,0.00,Wunderground v.1.15,2013-01-24 10:01:00,
2013-01-24 04:06:00,35.3,30.7,30.20,NNE,32,9.0,24.0,83,0.00,,,0.00,Wunderground v.1.15,2013-01-24 10:06:00,
2013-01-24 04:11:00,35.0,30.1,30.20,NW,318,28.0,30.0,82,0.00,,,0.00,Wunderground v.1.15,2013-01-24 10:11:00,
2013-01-24 04:17:00,34.7,29.8,30.19,NW,315,18.0,30.0,82,0.00,,,0.00,Wunderground v.1.15,2013-01-24 10:17:00,
2013-01-24 04:21:00,34.3,29.4,30.20,West,278,13.0,21.0,82,0.00,,,0.00,Wunderground v.1.15,2013-01-24 10:21:00,
2013-01-24 04:27:00,34.1,29.5,30.20,West,281,7.0,24.0,83,0.00,,,0.00,Wunderground v.1.15,2013-01-24 10:27:00,
2013-01-24 04:32:00,33.8,29.5,30.20,WNW,302,21.0,21.0,84,0.00,,,0.00,Wunderground v.1.15,2013-01-24 10:32:00,
2013-01-24 04:37:00,33.6,29.3,30.20,WNW,291,7.0,22.0,84,0.00,,,0.00,Wunderground v.1.15,2013-01-24 10:37:00,
2013-01-24 04:42:00,33.3,29.0,30.21,NW,306,16.0,24.0,84,0.00,,,0.00,Wunderground v.1.15,2013-01-24 10:42:00,
2013-01-24 04:47:00,33.0,29.0,30.21,NW,313,20.0,24.0,85,0.00,,,0.00,Wunderground v.1.15,2013-01-24 10:47:00,
2013-01-24 04:52:00,32.9,28.9,30.21,West,280,12.0,22.0,85,0.00,,,0.00,Wunderground v.1.15,2013-01-24 10:52:00,
2013-01-24 04:57:00,32.7,29.0,30.21,West,267,18.0,24.0,86,0.00,,,0.00,Wunderground v.1.15,2013-01-24 10:57:00,
2013-01-24 05:02:00,32.5,28.8,30.22,WNW,303,17.0,21.0,86,0.00,,,0.00,Wunderground v.1.15,2013-01-24 11:02:00,
2013-01-24 05:07:00,32.3,28.9,30.22,WNW,292,14.0,21.0,87,0.00,,,0.00,Wunderground v.1.15,2013-01-24 11:07:00,
2013-01-24 05:12:00,32.1,28.7,30.23,West,278,12.0,20.0,87,0.00,,,0.00,Wunderground v.1.15,2013-01-24 11:12:00,
2013-01-24 05:17:00,31.9,28.2,30.23,NW,304,19.0,23.0,86,0.00,,,0.00,Wunderground v.1.15,2013-01-24 11:17:00,
2013-01-24 05:22:00,31.6,27.3,30.23,NW,315,8.0,24.0,84,0.00,,,0.00,Wunderground v.1.15,2013-01-24 11:22:00,
2013-01-24 05:28:00,31.3,26.4,30.22,NW,317,15.0,24.0,82,0.00,,,0.00,Wunderground v.1.15,2013-01-24 11:28:00,
2013-01-24 05:33:00,31.0,25.9,30.23,NW,312,22.0,25.0,81,0.00,,,0.00,Wunderground v.1.15,2013-01-24 11:33:00,
2013-01-24 05:38:00,30.7,25.6,30.23,NNW,328,16.0,25.0,81,0.00,,,0.00,Wunderground v.1.15,2013-01-24 11:38:00,
2013-01-24 05:43:00,30.4,25.3,30.23,West,279,16.0,21.0,81,0.00,,,0.00,Wunderground v.1.15,2013-01-24 11:43:00,
2013-01-24 05:48:00,30.0,24.6,30.23,WNW,302,17.0,21.0,80,0.00,,,0.00,Wunderground v.1.15,2013-01-24 11:48:00,
2013-01-24 05:53:00,29.8,24.4,30.23,WNW,290,20.0,23.0,80,0.00,,,0.00,Wunderground v.1.15,2013-01-24 11:53:00,
2013-01-24 05:58:00,29.6,23.9,30.24,NW,305,13.0,23.0,79,0.00,,,0.00,Wunderground v.1.15,2013-01-24 11:58:00,
2013-01-24 06:03:00,29.4,24.0,30.24,NW,304,17.0,17.0,80,0.00,,,0.00,Wunderground v.1.15,2013-01-24 12:03:00,
2013-01-24 06:08:00,29.1,24.0,30.24,WNW,301,18.0,18.0,81,0.00,,,0.00,Wunderground v.1.15,2013-01-24 12:08:00,
2013-01-24 06:13:00,28.9,23.8,30.24,WNW,303,17.0,19.0,81,0.00,,,0.00,Wunderground v.1.15,2013-01-24 12:13:00,
2013-01-24 06:18:00,28.8,24.0,30.24,NW,320,15.0,19.0,82,0.00,,,0.00,Wunderground v.1.15,2013-01-24 12:18:00,
2013-01-24 06:23:00,28.6,23.5,30.25,WNW,286,14.0,17.0,81,0.00,,,0.00,Wunderground v.1.15,2013-01-24 12:23:00,
2013-01-24 06:28:00,28.3,22.9,30.25,South,185,8.0,20.0,80,0.00,,,0.00,Wunderground v.1.15,2013-01-24 12:28:00,
2013-01-24 06:34:00,28.1,22.4,30.25,NW,308,19.0,19.0,79,0.00,,,0.00,Wunderground v.1.15,2013-01-24 12:34:00,
2013-01-24 06:39:00,27.9,21.3,30.25,WNW,295,17.0,24.0,76,0.00,,,0.00,Wunderground v.1.15,2013-01-24 12:39:00,
2013-01-24 06:44:00,27.8,20.6,30.25,NNW,328,22.0,28.0,74,0.00,,,0.00,Wunderground v.1.15,2013-01-24 12:44:00,
2013-01-24 06:49:00,27.8,20.3,30.26,WNW,293,14.0,30.0,73,0.00,,,0.00,Wunderground v.1.15,2013-01-24 12:49:00,
2013-01-24 06:54:00,27.5,20.0,30.26,North,350,15.0,25.0,73,0.00,,,0.00,Wunderground v.1.15,2013-01-24 12:54:00,
2013-01-24 06:59:00,27.3,20.1,30.27,NW,309,16.0,26.0,74,0.00,,,0.00,Wunderground v.1.15,2013-01-24 12:59:00,
2013-01-24 07:04:00,27.1,19.9,30.27,NW,304,23.0,23.0,74,0.00,,,0.00,Wunderground v.1.15,2013-01-24 13:04:00,
2013-01-24 07:09:00,27.0,20.1,30.28,WSW,246,13.0,23.0,75,0.00,,,0.00,Wunderground v.1.15,2013-01-24 13:09:00,
2013-01-24 07:14:00,26.8,20.2,30.28,West,263,16.0,25.0,76,0.00,,,0.00,Wunderground v.1.15,2013-01-24 13:14:00,
2013-01-24 07:19:00,26.7,19.8,30.28,South,183,15.0,28.0,75,0.00,,,0.00,Wunderground v.1.15,2013-01-24 13:19:00,
2013-01-24 07:24:00,26.6,20.1,30.29,NNW,340,10.0,23.0,76,0.00,,,0.00,Wunderground v.1.15,2013-01-24 13:24:00,
2013-01-24 07:29:00,26.5,20.0,30.28,NNW,338,13.0,27.0,76,0.00,,,0.00,Wunderground v.1.15,2013-01-24 13:29:00,
2013-01-24 07:34:00,26.4,19.9,30.29,WNW,296,15.0,23.0,76,0.00,,,0.00,Wunderground v.1.15,2013-01-24 13:34:00,
2013-01-24 07:39:00,26.3,19.8,30.28,WNW,298,15.0,24.0,76,0.00,,,0.00,Wunderground v.1.15,2013-01-24 13:39:00,
2013-01-24 07:44:00,26.3,19.8,30.29,WSW,249,14.0,21.0,76,0.00,,,0.00,Wunderground v.1.15,2013-01-24 13:44:00,
2013-01-24 07:49:00,26.3,19.8,30.30,NW,304,18.0,24.0,76,0.00,,,0.00,Wunderground v.1.15,2013-01-24 13:49:00,
2013-01-24 07:54:00,26.2,19.7,30.30,WNW,292,15.0,23.0,76,0.00,,,0.00,Wunderground v.1.15,2013-01-24 13:54:00,
2013-01-24 07:59:00,26.2,19.7,30.31,NNW,332,19.0,23.0,76,0.00,,,0.00,Wunderground v.1.15,2013-01-24 13:59:00,
2013-01-24 08:04:00,26.2,19.4,30.31,WNW,301,12.0,22.0,75,0.00,,,0.00,Wunderground v.1.15,2013-01-24 14:04:00,
2013-01-24 08:09:00,26.2,19.7,30.30,SW,225,10.0,22.0,76,0.00,,,0.00,Wunderground v.1.15,2013-01-24 14:09:00,
2013-01-24 08:14:00,26.3,19.5,30.31,NW,306,19.0,23.0,75,0.00,,,0.00,Wunderground v.1.15,2013-01-24 14:14:00,
2013-01-24 08:19:00,26.3,19.5,30.31,SW,229,7.0,23.0,75,0.00,,,0.00,Wunderground v.1.15,2013-01-24 14:19:00,
2013-01-24 08:24:00,26.3,19.5,30.32,North,355,8.0,19.0,75,0.00,,,0.00,Wunderground v.1.15,2013-01-24 14:24:00,
2013-01-24 08:29:00,26.4,19.5,30.32,NW,313,7.0,22.0,75,0.00,,,0.00,Wunderground v.1.15,2013-01-24 14:29:00,
2013-01-24 08:34:00,26.5,19.6,30.32,NW,306,11.0,19.0,75,0.00,,,0.00,Wunderground v.1.15,2013-01-24 14:34:00,
2013-01-24 08:39:00,26.5,19.6,30.33,West,277,12.0,21.0,75,0.00,,,0.00,Wunderground v.1.15,2013-01-24 14:39:00,
2013-01-24 08:45:00,26.6,19.7,30.33,NW,305,12.0,18.0,75,0.00,,,0.00,Wunderground v.1.15,2013-01-24 14:45:00,
2013-01-24 08:50:00,26.6,19.7,30.33,NW,312,17.0,17.0,75,0.00,,,0.00,Wunderground v.1.15,2013-01-24 14:50:00,
2013-01-24 08:55:00,26.6,19.7,30.33,WNW,300,14.0,17.0,75,0.00,,,0.00,Wunderground v.1.15,2013-01-24 14:55:00,
2013-01-24 09:00:00,26.7,19.5,30.32,NW,318,13.0,13.0,74,0.00,,,0.00,Wunderground v.1.15,2013-01-24 15:00:00,
2013-01-24 09:05:00,26.6,19.4,30.33,NW,311,11.0,15.0,74,0.00,,,0.00,Wunderground v.1.15,2013-01-24 15:05:00,
2013-01-24 09:10:00,26.5,19.3,30.33,NW,313,9.0,14.0,74,0.00,,,0.00,Wunderground v.1.15,2013-01-24 15:10:00,
2013-01-24 09:15:00,26.7,19.8,30.33,NW,311,8.0,14.0,75,0.00,,,0.00,Wunderground v.1.15,2013-01-24 15:15:00,
2013-01-24 09:20:00,26.9,19.7,30.33,NW,315,3.0,8.0,74,0.00,,,0.00,Wunderground v.1.15,2013-01-24 15:20:00,
2013-01-24 09:25:00,26.8,19.6,30.34,NW,312,10.0,15.0,74,0.00,,,0.00,Wunderground v.1.15,2013-01-24 15:25:00,
2013-01-24 09:30:00,27.0,19.8,30.34,WNW,291,10.0,13.0,74,0.00,,,0.00,Wunderground v.1.15,2013-01-24 15:30:00,
2013-01-24 09:35:00,27.2,20.0,30.34,West,281,8.0,16.0,74,0.00,,,0.00,Wunderground v.1.15,2013-01-24 15:35:00,
2013-01-24 09:40:00,27.5,20.3,30.35,WSW,257,2.0,9.0,74,0.00,,,0.00,Wunderground v.1.15,2013-01-24 15:40:00,
2013-01-24 09:45:00,27.6,20.1,30.34,NW,310,17.0,17.0,73,0.00,,,0.00,Wunderground v.1.15,2013-01-24 15:45:00,
2013-01-24 09:50:00,27.6,19.8,30.35,WNW,296,14.0,14.0,72,0.00,,,0.00,Wunderground v.1.15,2013-01-24 15:50:00,
2013-01-24 09:55:00,27.5,19.3,30.34,NNW,333,11.0,16.0,71,0.00,,,0.00,Wunderground v.1.15,2013-01-24 15:55:00,
2013-01-24 10:00:00,27.5,19.3,30.35,WNW,299,11.0,11.0,71,0.00,,,0.00,Wunderground v.1.15,2013-01-24 16:00:00,
2013-01-24 10:05:00,27.6,19.1,30.35,NW,323,3.0,15.0,70,0.00,,,0.00,Wunderground v.1.15,2013-01-24 16:05:00,
2013-01-24 10:10:00,27.6,19.1,30.35,NW,315,3.0,11.0,70,0.00,,,0.00,Wunderground v.1.15,2013-01-24 16:10:00,
2013-01-24 10:15:00,27.9,19.7,30.36,WNW,303,20.0,20.0,71,0.00,,,0.00,Wunderground v.1.15,2013-01-24 16:15:00,
2013-01-24 10:20:00,28.1,19.6,30.36,NW,315,10.0,16.0,70,0.00,,,0.00,Wunderground v.1.15,2013-01-24 16:20:00,
2013-01-24 10:25:00,28.3,19.8,30.36,NW,306,10.0,16.0,70,0.00,,,0.00,Wunderground v.1.15,2013-01-24 16:25:00,
2013-01-24 10:30:00,28.1,19.2,30.36,North,355,11.0,13.0,69,0.00,,,0.00,Wunderground v.1.15,2013-01-24 16:30:00,
2013-01-24 10:35:00,28.1,19.6,30.36,NNW,329,16.0,18.0,70,0.00,,,0.00,Wunderground v.1.15,2013-01-24 16:35:00,
2013-01-24 10:40:00,28.3,19.8,30.36,NNW,331,9.0,13.0,70,0.00,,,0.00,Wunderground v.1.15,2013-01-24 16:40:00,
2013-01-24 10:45:00,28.4,19.5,30.36,West,262,2.0,13.0,69,0.00,,,0.00,Wunderground v.1.15,2013-01-24 16:45:00,
2013-01-24 10:50:00,28.5,19.6,30.36,NNW,331,10.0,10.0,69,0.00,,,0.00,Wunderground v.1.15,2013-01-24 16:50:00,
2013-01-24 10:55:00,28.5,18.6,30.36,WNW,288,7.0,16.0,66,0.00,,,0.00,Wunderground v.1.15,2013-01-24 16:55:00,
2013-01-24 11:00:00,28.7,19.1,30.36,NNE,30,4.0,11.0,67,0.00,,,0.00,Wunderground v.1.15,2013-01-24 17:00:00,
2013-01-24 11:06:00,28.8,19.2,30.36,West,260,10.0,11.0,67,0.00,,,0.00,Wunderground v.1.15,2013-01-24 17:06:00,
2013-01-24 11:10:00,29.1,19.2,30.36,NNW,337,9.0,14.0,66,0.00,,,0.00,Wunderground v.1.15,2013-01-24 17:10:00,
2013-01-24 11:15:00,29.0,18.7,30.36,North,5,9.0,14.0,65,0.00,,,0.00,Wunderground v.1.15,2013-01-24 17:15:00,
2013-01-24 11:21:00,29.3,19.0,30.36,North,5,8.0,11.0,65,0.00,,,0.00,Wunderground v.1.15,2013-01-24 17:21:00,
2013-01-24 11:26:00,29.4,18.0,30.35,SSE,160,2.0,11.0,62,0.00,,,0.00,Wunderground v.1.15,2013-01-24 17:26:00,
2013-01-24 11:31:00,29.8,18.7,30.36,NW,325,4.0,9.0,63,0.00,,,0.00,Wunderground v.1.15,2013-01-24 17:31:00,
2013-01-24 11:36:00,30.0,18.5,30.35,NW,313,8.0,14.0,62,0.00,,,0.00,Wunderground v.1.15,2013-01-24 17:36:00,
2013-01-24 11:41:00,30.1,18.3,30.35,North,355,11.0,11.0,61,0.00,,,0.00,Wunderground v.1.15,2013-01-24 17:41:00,
2013-01-24 11:46:00,30.1,17.5,30.36,WNW,303,6.0,12.0,59,0.00,,,0.00,Wunderground v.1.15,2013-01-24 17:46:00,
2013-01-24 11:51:00,30.2,18.4,30.36,WNW,296,8.0,9.0,61,0.00,,,0.00,Wunderground v.1.15,2013-01-24 17:51:00,
2013-01-24 11:56:00,30.3,17.7,30.36,NNW,344,10.0,13.0,59,0.00,,,0.00,Wunderground v.1.15,2013-01-24 17:56:00,
2013-01-24 12:01:00,30.1,17.5,30.36,NW,306,11.0,11.0,59,0.00,,,0.00,Wunderground v.1.15,2013-01-24 18:01:00,
2013-01-24 12:06:00,30.6,17.6,30.36,North,355,11.0,15.0,58,0.00,,,0.00,Wunderground v.1.15,2013-01-24 18:06:00,
2013-01-24 12:11:00,30.6,17.6,30.35,NW,323,10.0,11.0,58,0.00,,,0.00,Wunderground v.1.15,2013-01-24 18:11:00,
2013-01-24 12:16:00,30.7,18.4,30.35,NNW,341,5.0,13.0,60,0.00,,,0.00,Wunderground v.1.15,2013-01-24 18:16:00,
2013-01-24 12:21:00,31.1,18.8,30.35,NNW,333,4.0,9.0,60,0.00,,,0.00,Wunderground v.1.15,2013-01-24 18:21:00,
2013-01-24 12:26:00,31.3,19.0,30.34,WSW,258,7.0,11.0,60,0.00,,,0.00,Wunderground v.1.15,2013-01-24 18:26:00,
2013-01-24 12:31:00,31.5,18.4,30.34,NW,310,8.0,11.0,58,0.00,,,0.00,Wunderground v.1.15,2013-01-24 18:31:00,
2013-01-24 12:36:00,31.6,18.1,30.34,NNW,329,10.0,13.0,57,0.00,,,0.00,Wunderground v.1.15,2013-01-24 18:36:00,
2013-01-24 12:41:00,31.7,17.8,30.34,North,355,8.0,9.0,56,0.00,,,0.00,Wunderground v.1.15,2013-01-24 18:41:00,
2013-01-24 12:46:00,31.4,17.5,30.34,NW,312,4.0,9.0,56,0.00,,,0.00,Wunderground v.1.15,2013-01-24 18:46:00,
2013-01-24 12:51:00,31.5,17.2,30.33,NW,325,4.0,7.0,55,0.00,,,0.00,Wunderground v.1.15,2013-01-24 18:51:00,
2013-01-24 12:56:00,31.6,17.7,30.34,NNW,329,6.0,13.0,56,0.00,,,0.00,Wunderground v.1.15,2013-01-24 18:56:00,
2013-01-24 13:01:00,31.7,17.4,30.34,WNW,303,3.0,8.0,55,0.00,,,0.00,Wunderground v.1.15,2013-01-24 19:01:00,
2013-01-24 13:06:00,31.9,18.4,30.34,West,263,1.0,8.0,57,0.00,,,0.00,Wunderground v.1.15,2013-01-24 19:06:00,
2013-01-24 13:11:00,33.0,19.0,30.34,NW,311,6.0,9.0,56,0.00,,,0.00,Wunderground v.1.15,2013-01-24 19:11:00,
2013-01-24 13:16:00,33.4,17.2,30.34,WNW,290,3.0,10.0,51,0.00,,,0.00,Wunderground v.1.15,2013-01-24 19:16:00,
2013-01-24 13:21:00,33.2,17.0,30.34,WNW,290,5.0,6.0,51,0.00,,,0.00,Wunderground v.1.15,2013-01-24 19:21:00,
2013-01-24 13:26:00,33.3,17.1,30.34,WNW,300,8.0,8.0,51,0.00,,,0.00,Wunderground v.1.15,2013-01-24 19:26:00,
2013-01-24 13:31:00,33.5,16.4,30.33,NW,314,11.0,11.0,49,0.00,,,0.00,Wunderground v.1.15,2013-01-24 19:31:00,
2013-01-24 13:36:00,33.0,15.4,30.33,NNE,12,8.0,13.0,48,0.00,,,0.00,Wunderground v.1.15,2013-01-24 19:36:00,
2013-01-24 13:41:00,32.5,14.5,30.33,North,5,10.0,10.0,47,0.00,,,0.00,Wunderground v.1.15,2013-01-24 19:41:00,
2013-01-24 13:46:00,32.5,14.5,30.33,WSW,250,2.0,10.0,47,0.00,,,0.00,Wunderground v.1.15,2013-01-24 19:46:00,
2013-01-24 13:51:00,32.8,15.2,30.33,West,277,7.0,7.0,48,0.00,,,0.00,Wunderground v.1.15,2013-01-24 19:51:00,
2013-01-24 13:56:00,32.7,14.2,30.33,WNW,298,4.0,9.0,46,0.00,,,0.00,Wunderground v.1.15,2013-01-24 19:56:00,
2013-01-24 14:01:00,32.8,14.8,30.33,WNW,293,7.0,7.0,47,0.00,,,0.00,Wunderground v.1.15,2013-01-24 20:01:00,
2013-01-24 14:06:00,33.4,14.8,30.34,NW,325,9.0,9.0,46,0.00,,,0.00,Wunderground v.1.15,2013-01-24 20:06:00,
2013-01-24 14:11:00,33.3,14.2,30.34,NW,313,7.0,8.0,45,0.00,,,0.00,Wunderground v.1.15,2013-01-24 20:11:00,
2013-01-24 14:16:00,33.1,13.5,30.34,NNW,339,3.0,8.0,44,0.00,,,0.00,Wunderground v.1.15,2013-01-24 20:16:00,
2013-01-24 14:21:00,32.9,13.3,30.35,NNE,14,3.0,4.0,44,0.00,,,0.00,Wunderground v.1.15,2013-01-24 20:21:00,
2013-01-24 14:26:00,33.0,12.9,30.34,NNW,342,5.0,6.0,43,0.00,,,0.00,Wunderground v.1.15,2013-01-24 20:26:00,
2013-01-24 14:31:00,32.7,11.6,30.35,North,350,2.0,5.0,41,0.00,,,0.00,Wunderground v.1.15,2013-01-24 20:31:00,
2013-01-24 14:36:00,32.7,12.6,30.35,WNW,286,5.0,11.0,43,0.00,,,0.00,Wunderground v.1.15,2013-01-24 20:36:00,
2013-01-24 14:41:00,33.0,12.4,30.35,WNW,300,8.0,9.0,42,0.00,,,0.00,Wunderground v.1.15,2013-01-24 20:41:00,
2013-01-24 14:46:00,33.4,12.2,30.34,WNW,289,6.0,11.0,41,0.00,,,0.00,Wunderground v.1.15,2013-01-24 20:46:00,
2013-01-24 14:51:00,33.5,11.7,30.34,NNW,340,2.0,5.0,40,0.00,,,0.00,Wunderground v.1.15,2013-01-24 20:51:00,
2013-01-24 14:56:00,33.5,11.7,30.34,NW,326,0.0,8.0,40,0.00,,,0.00,Wunderground v.1.15,2013-01-24 20:56:00,
2013-01-24 15:02:00,33.4,11.1,30.35,NNE,16,4.0,11.0,39,0.00,,,0.00,Wunderground v.1.15,2013-01-24 21:02:00,
2013-01-24 15:07:00,33.3,11.5,30.35,NW,318,2.0,11.0,40,0.00,,,0.00,Wunderground v.1.15,2013-01-24 21:07:00,
2013-01-24 15:12:00,33.5,11.2,30.35,WSW,257,1.0,5.0,39,0.00,,,0.00,Wunderground v.1.15,2013-01-24 21:12:00,
2013-01-24 15:17:00,33.6,10.7,30.35,North,355,5.0,6.0,38,0.00,,,0.00,Wunderground v.1.15,2013-01-24 21:17:00,
2013-01-24 15:22:00,33.8,10.2,30.35,WSW,249,2.0,8.0,37,0.00,,,0.00,Wunderground v.1.15,2013-01-24 21:22:00,
2013-01-24 15:27:00,34.1,11.7,30.35,NW,315,2.0,8.0,39,0.00,,,0.00,Wunderground v.1.15,2013-01-24 21:27:00,
2013-01-24 15:32:00,34.1,11.1,30.35,NW,310,7.0,7.0,38,0.00,,,0.00,Wunderground v.1.15,2013-01-24 21:32:00,
2013-01-24 15:37:00,33.9,9.1,30.35,NNW,333,0.0,10.0,35,0.00,,,0.00,Wunderground v.1.15,2013-01-24 21:37:00,
2013-01-24 15:42:00,33.6,8.8,30.36,West,279,2.0,3.0,35,0.00,,,0.00,Wunderground v.1.15,2013-01-24 21:42:00,
2013-01-24 15:47:00,33.5,8.7,30.36,WNW,285,6.0,7.0,35,0.00,,,0.00,Wunderground v.1.15,2013-01-24 21:47:00,
2013-01-24 15:52:00,33.3,9.2,30.36,South,182,1.0,8.0,36,0.00,,,0.00,Wunderground v.1.15,2013-01-24 21:52:00,
2013-01-24 15:57:00,32.9,8.2,30.36,WNW,303,8.0,12.0,35,0.00,,,0.00,Wunderground v.1.15,2013-01-24 21:57:00,
2013-01-24 16:02:00,32.0,7.4,30.37,NW,313,4.0,13.0,35,0.00,,,0.00,Wunderground v.1.15,2013-01-24 22:02:00,
2013-01-24 16:07:00,31.7,7.1,30.36,NW,313,5.0,13.0,35,0.00,,,0.00,Wunderground v.1.15,2013-01-24 22:07:00,
2013-01-24 16:12:00,31.6,7.0,30.36,NNW,341,5.0,7.0,35,0.00,,,0.00,Wunderground v.1.15,2013-01-24 22:12:00,
2013-01-24 16:17:00,31.8,7.2,30.36,West,277,2.0,7.0,35,0.00,,,0.00,Wunderground v.1.15,2013-01-24 22:17:00,
2013-01-24 16:22:00,31.7,7.7,30.36,NNE,32,2.0,4.0,36,0.00,,,0.00,Wunderground v.1.15,2013-01-24 22:22:00,
2013-01-24 16:27:00,31.8,7.8,30.36,NNW,333,0.0,6.0,36,0.00,,,0.00,Wunderground v.1.15,2013-01-24 22:27:00,
2013-01-24 16:32:00,31.7,7.7,30.35,ENE,69,1.0,4.0,36,0.00,,,0.00,Wunderground v.1.15,2013-01-24 22:32:00,
2013-01-24 16:37:00,31.7,7.1,30.36,NE,38,0.0,4.0,35,0.00,,,0.00,Wunderground v.1.15,2013-01-24 22:37:00,
2013-01-24 16:42:00,31.6,8.9,30.36,East,80,3.0,3.0,38,0.00,,,0.00,Wunderground v.1.15,2013-01-24 22:42:00,
2013-01-24 16:47:00,31.2,6.7,30.36,NE,51,2.0,4.0,35,0.00,,,0.00,Wunderground v.1.15,2013-01-24 22:47:00,
2013-01-24 16:52:00,30.8,6.3,30.36,NE,52,4.0,4.0,35,0.00,,,0.00,Wunderground v.1.15,2013-01-24 22:52:00,
2013-01-24 16:57:00,30.4,6.0,30.36,ENE,59,2.0,5.0,35,0.00,,,0.00,Wunderground v.1.15,2013-01-24 22:57:00,
2013-01-24 17:02:00,30.1,5.7,30.36,ENE,61,0.0,3.0,35,0.00,,,0.00,Wunderground v.1.15,2013-01-24 23:02:00,
2013-01-24 17:07:00,29.7,6.0,30.36,NE,54,4.0,4.0,36,0.00,,,0.00,Wunderground v.1.15,2013-01-24 23:07:00,
2013-01-24 17:12:00,29.4,5.7,30.36,ENE,63,2.0,4.0,36,0.00,,,0.00,Wunderground v.1.15,2013-01-24 23:12:00,
2013-01-24 17:17:00,29.1,7.2,30.36,East,98,1.0,5.0,39,0.00,,,0.00,Wunderground v.1.15,2013-01-24 23:17:00,
2013-01-24 17:22:00,28.9,8.1,30.36,ESE,102,2.0,3.0,41,0.00,,,0.00,Wunderground v.1.15,2013-01-24 23:22:00,
2013-01-24 17:27:00,28.6,7.8,30.37,East,90,0.0,8.0,41,0.00,,,0.00,Wunderground v.1.15,2013-01-24 23:27:00,
2013-01-24 17:32:00,28.4,8.2,30.37,East,98,5.0,5.0,42,0.00,,,0.00,Wunderground v.1.15,2013-01-24 23:32:00,
2013-01-24 17:37:00,28.1,8.4,30.36,ENE,78,8.0,8.0,43,0.00,,,0.00,Wunderground v.1.15,2013-01-24 23:37:00,
2013-01-24 17:42:00,27.9,8.3,30.36,East,87,5.0,6.0,43,0.00,,,0.00,Wunderground v.1.15,2013-01-24 23:42:00,
2013-01-24 17:47:00,27.8,8.2,30.36,SE,124,3.0,6.0,43,0.00,,,0.00,Wunderground v.1.15,2013-01-24 23:47:00,
2013-01-24 17:52:00,27.6,8.0,30.37,East,88,5.0,6.0,43,0.00,,,0.00,Wunderground v.1.15,2013-01-24 23:52:00,
2013-01-24 17:57:00,27.5,8.4,30.37,East,91,5.0,6.0,44,0.00,,,0.00,Wunderground v.1.15,2013-01-24 23:57:00,
2013-01-24 18:02:00,27.4,8.8,30.37,ESE,103,3.0,6.0,45,0.00,,,0.00,Wunderground v.1.15,2013-01-25 00:02:00,
2013-01-24 18:07:00,27.2,8.6,30.37,ESE,119,3.0,8.0,45,0.00,,,0.00,Wunderground v.1.15,2013-01-25 00:07:00,
2013-01-24 18:12:00,27.1,8.5,30.36,ESE,107,5.0,6.0,45,0.00,,,0.00,Wunderground v.1.15,2013-01-25 00:12:00,
2013-01-24 18:17:00,27.0,8.5,30.36,ENE,69,8.0,8.0,45,0.00,,,0.00,Wunderground v.1.15,2013-01-25 00:17:00,
2013-01-24 18:22:00,27.0,8.5,30.36,ESE,111,4.0,7.0,45,0.00,,,0.00,Wunderground v.1.15,2013-01-25 00:22:00,
2013-01-24 18:27:00,27.0,8.5,30.36,ESE,109,4.0,8.0,45,0.00,,,0.00,Wunderground v.1.15,2013-01-25 00:27:00,
2013-01-24 18:32:00,26.9,8.4,30.36,SE,132,3.0,7.0,45,0.00,,,0.00,Wunderground v.1.15,2013-01-25 00:32:00,
2013-01-24 18:37:00,26.8,8.8,30.36,SE,133,2.0,7.0,46,0.00,,,0.00,Wunderground v.1.15,2013-01-25 00:37:00,
2013-01-24 18:42:00,26.7,8.2,30.36,ESE,103,2.0,8.0,45,0.00,,,0.00,Wunderground v.1.15,2013-01-25 00:42:00,
2013-01-24 18:47:00,26.6,8.1,30.36,ENE,78,4.0,9.0,45,0.00,,,0.00,Wunderground v.1.15,2013-01-25 00:47:00,
2013-01-24 18:52:00,26.5,8.5,30.36,East,91,2.0,7.0,46,0.00,,,0.00,Wunderground v.1.15,2013-01-25 00:52:00,
2013-01-24 18:57:00,26.4,8.4,30.36,SE,138,6.0,8.0,46,0.00,,,0.00,Wunderground v.1.15,2013-01-25 00:57:00,
2013-01-24 19:02:00,26.3,8.8,30.36,ESE,117,4.0,8.0,47,0.00,,,0.00,Wunderground v.1.15,2013-01-25 01:02:00,
2013-01-24 19:07:00,26.2,8.7,30.36,East,98,6.0,10.0,47,0.00,,,0.00,Wunderground v.1.15,2013-01-25 01:07:00,
2013-01-24 19:13:00,26.1,8.1,30.36,East,100,1.0,8.0,46,0.00,,,0.00,Wunderground v.1.15,2013-01-25 01:13:00,
2013-01-24 19:18:00,26.1,8.6,30.36,SSE,161,1.0,8.0,47,0.00,,,0.00,Wunderground v.1.15,2013-01-25 01:18:00,
2013-01-24 19:23:00,26.1,8.6,30.35,SE,144,5.0,7.0,47,0.00,,,0.00,Wunderground v.1.15,2013-01-25 01:23:00,
2013-01-24 19:28:00,26.0,9.0,30.36,SSE,155,1.0,8.0,48,0.00,,,0.00,Wunderground v.1.15,2013-01-25 01:28:00,
2013-01-24 19:33:00,26.0,9.0,30.36,ESE,118,2.0,8.0,48,0.00,,,0.00,Wunderground v.1.15,2013-01-25 01:33:00,
2013-01-24 19:38:00,25.8,8.8,30.35,ESE,121,4.0,9.0,48,0.00,,,0.00,Wunderground v.1.15,2013-01-25 01:38:00,
2013-01-24 19:43:00,25.7,8.7,30.35,ESE,115,3.0,8.0,48,0.00,,,0.00,Wunderground v.1.15,2013-01-25 01:43:00,
2013-01-24 19:48:00,25.6,9.1,30.35,SSE,150,4.0,9.0,49,0.00,,,0.00,Wunderground v.1.15,2013-01-25 01:48:00,
2013-01-24 19:53:00,25.5,9.0,30.35,SE,129,3.0,9.0,49,0.00,,,0.00,Wunderground v.1.15,2013-01-25 01:53:00,
2013-01-24 19:58:00,25.4,8.9,30.35,ESE,113,8.0,10.0,49,0.00,,,0.00,Wunderground v.1.15,2013-01-25 01:58:00,
2013-01-24 20:03:00,25.3,9.2,30.34,NNW,336,3.0,11.0,50,0.00,,,0.00,Wunderground v.1.15,2013-01-25 02:03:00,
2013-01-24 20:08:00,25.2,8.7,30.35,ESE,105,2.0,11.0,49,0.00,,,0.00,Wunderground v.1.15,2013-01-25 02:08:00,
2013-01-24 20:13:00,25.1,9.0,30.34,ESE,113,5.0,10.0,50,0.00,,,0.00,Wunderground v.1.15,2013-01-25 02:13:00,
2013-01-24 20:18:00,25.1,9.0,30.35,ESE,116,3.0,10.0,50,0.00,,,0.00,Wunderground v.1.15,2013-01-25 02:18:00,
2013-01-24 20:23:00,25.0,9.0,30.34,SSE,159,6.0,11.0,50,0.00,,,0.00,Wunderground v.1.15,2013-01-25 02:23:00,
2013-01-24 20:28:00,24.9,8.9,30.34,ENE,60,3.0,11.0,50,0.00,,,0.00,Wunderground v.1.15,2013-01-25 02:28:00,
2013-01-24 20:33:00,24.8,8.8,30.34,SE,144,6.0,9.0,50,0.00,,,0.00,Wunderground v.1.15,2013-01-25 02:33:00,
2013-01-24 20:38:00,24.8,8.8,30.34,SE,126,5.0,11.0,50,0.00,,,0.00,Wunderground v.1.15,2013-01-25 02:38:00,
2013-01-24 20:43:00,24.7,8.7,30.34,SSE,156,5.0,12.0,50,0.00,,,0.00,Wunderground v.1.15,2013-01-25 02:43:00,
2013-01-24 20:48:00,24.7,9.1,30.34,SE,128,8.0,12.0,51,0.00,,,0.00,Wunderground v.1.15,2013-01-25 02:48:00,
2013-01-24 20:53:00,24.6,9.0,30.34,ESE,114,7.0,11.0,51,0.00,,,0.00,Wunderground v.1.15,2013-01-25 02:53:00,
2013-01-24 20:58:00,24.6,9.0,30.34,NE,47,3.0,12.0,51,0.00,,,0.00,Wunderground v.1.15,2013-01-25 02:58:00,
2013-01-24 21:03:00,24.5,8.9,30.33,SW,224,4.0,10.0,51,0.00,,,0.00,Wunderground v.1.15,2013-01-25 03:03:00,
2013-01-24 21:08:00,24.5,9.4,30.33,SE,133,8.0,11.0,52,0.00,,,0.00,Wunderground v.1.15,2013-01-25 03:08:00,
2013-01-24 21:13:00,24.4,8.8,30.33,SE,132,7.0,12.0,51,0.00,,,0.00,Wunderground v.1.15,2013-01-25 03:13:00,
2013-01-24 21:18:00,24.3,9.2,30.33,SSE,153,5.0,12.0,52,0.00,,,0.00,Wunderground v.1.15,2013-01-25 03:18:00,
2013-01-24 21:23:00,24.3,9.2,30.33,South,184,2.0,12.0,52,0.00,,,0.00,Wunderground v.1.15,2013-01-25 03:23:00,
2013-01-24 21:28:00,24.2,9.1,30.33,ESE,117,11.0,12.0,52,0.00,,,0.00,Wunderground v.1.15,2013-01-25 03:28:00,
2013-01-24 21:33:00,24.2,9.5,30.32,North,355,7.0,13.0,53,0.00,,,0.00,Wunderground v.1.15,2013-01-25 03:33:00,
2013-01-24 21:38:00,24.1,9.0,30.31,ESE,106,12.0,15.0,52,0.00,,,0.00,Wunderground v.1.15,2013-01-25 03:38:00,
2013-01-24 21:43:00,24.0,8.9,30.32,ESE,119,10.0,15.0,52,0.00,,,0.00,Wunderground v.1.15,2013-01-25 03:43:00,
2013-01-24 21:48:00,24.0,8.9,30.33,ESE,108,9.0,15.0,52,0.00,,,0.00,Wunderground v.1.15,2013-01-25 03:48:00,
2013-01-24 21:53:00,24.1,9.0,30.33,SE,131,6.0,12.0,52,0.00,,,0.00,Wunderground v.1.15,2013-01-25 03:53:00,
2013-01-24 21:58:00,24.3,9.6,30.32,ENE,77,7.0,13.0,53,0.00,,,0.00,Wunderground v.1.15,2013-01-25 03:58:00,
2013-01-24 22:03:00,24.3,8.7,30.33,ESE,123,9.0,14.0,51,0.00,,,0.00,Wunderground v.1.15,2013-01-25 04:03:00,
2013-01-24 22:08:00,24.4,8.8,30.32,SE,132,5.0,14.0,51,0.00,,,0.00,Wunderground v.1.15,2013-01-25 04:08:00,
2013-01-24 22:13:00,24.4,8.8,30.33,SE,131,9.0,14.0,51,0.00,,,0.00,Wunderground v.1.15,2013-01-25 04:13:00,
2013-01-24 22:18:00,24.5,8.9,30.32,SE,127,9.0,14.0,51,0.00,,,0.00,Wunderground v.1.15,2013-01-25 04:18:00,
2013-01-24 22:23:00,24.5,8.9,30.32,ESE,113,5.0,14.0,51,0.00,,,0.00,Wunderground v.1.15,2013-01-25 04:23:00,
2013-01-24 22:28:00,24.5,8.9,30.31,SE,126,9.0,14.0,51,0.00,,,0.00,Wunderground v.1.15,2013-01-25 04:28:00,
2013-01-24 22:33:00,24.6,9.0,30.32,NNE,19,6.0,13.0,51,0.00,,,0.00,Wunderground v.1.15,2013-01-25 04:33:00,
2013-01-24 22:38:00,24.6,8.6,30.33,SW,217,6.0,13.0,50,0.00,,,0.00,Wunderground v.1.15,2013-01-25 04:38:00,
2013-01-24 22:43:00,24.6,8.1,30.33,SSE,150,2.0,10.0,49,0.00,,,0.00,Wunderground v.1.15,2013-01-25 04:43:00,
2013-01-24 22:48:00,24.6,7.7,30.34,SSE,155,1.0,10.0,48,0.00,,,0.00,Wunderground v.1.15,2013-01-25 04:48:00,
2013-01-24 22:53:00,24.5,7.1,30.36,WSW,241,0.0,4.0,47,0.00,,,0.00,Wunderground v.1.15,2013-01-25 04:53:00,
2013-01-24 22:58:00,24.4,7.5,30.34,SE,125,5.0,8.0,48,0.00,,,0.00,Wunderground v.1.15,2013-01-25 04:58:00,
2013-01-24 23:00:00,24.5,7.6,30.33,East,94,6.0,6.0,48,0.00,,,0.00,Wunderground v.1.15,2013-01-25 05:00:00,
2013-01-24 23:01:00,24.5,7.6,30.33,SSW,204,1.0,6.0,48,0.00,,,0.00,Wunderground v.1.15,2013-01-25 05:01:00,
2013-01-24 23:03:00,24.6,7.7,30.34,East,100,6.0,6.0,48,0.00,,,0.00,Wunderground v.1.15,2013-01-25 05:03:00,
2013-01-24 23:04:00,24.7,7.8,30.34,SE,124,2.0,6.0,48,0.00,,,0.00,Wunderground v.1.15,2013-01-25 05:04:00,
2013-01-24 23:10:00,24.8,8.3,30.33,SSE,148,5.0,8.0,49,0.00,,,0.00,Wunderground v.1.15,2013-01-25 05:10:00,
2013-01-24 23:15:00,24.9,8.0,30.33,ESE,119,4.0,8.0,48,0.00,,,0.00,Wunderground v.1.15,2013-01-25 05:15:00,
2013-01-24 23:20:00,25.0,8.5,30.34,SE,138,4.0,8.0,49,0.00,,,0.00,Wunderground v.1.15,2013-01-25 05:20:00,
2013-01-24 23:25:00,25.1,8.6,30.34,NE,45,2.0,6.0,49,0.00,,,0.00,Wunderground v.1.15,2013-01-25 05:25:00,
2013-01-24 23:30:00,25.2,8.2,30.33,ESE,120,4.0,7.0,48,0.00,,,0.00,Wunderground v.1.15,2013-01-25 05:30:00,
2013-01-24 23:35:00,25.3,7.9,30.34,ESE,123,5.0,7.0,47,0.00,,,0.00,Wunderground v.1.15,2013-01-25 05:35:00,
2013-01-24 23:40:00,25.3,8.3,30.33,ESE,123,7.0,8.0,48,0.00,,,0.00,Wunderground v.1.15,2013-01-25 05:40:00,
2013-01-24 23:45:00,25.4,7.9,30.33,East,88,8.0,9.0,47,0.00,,,0.00,Wunderground v.1.15,2013-01-25 05:45:00,
2013-01-24 23:50:00,25.4,8.4,30.32,East,98,8.0,8.0,48,0.00,,,0.00,Wunderground v.1.15,2013-01-25 05:50:00,
2013-01-24 23:55:00,25.3,7.9,30.33,ESE,119,8.0,8.0,47,0.00,,,0.00,Wunderground v.1.15,2013-01-25 05:55:00,